Hurghada, Egypt

11:42 AM EET on April 24, 2018 (GMT +0200)
Hurghada

Weather History for HEGN - April, 2014

Change the Weather History Date:

Tuesday, April 8, 2014

  Actual Average Record
Temperature  
Mean Temperature 77 °F -  
Max Temperature 86 °F 83 °F 102 °F (2015)
Min Temperature 68 °F 66 °F 58 °F (2013)
Cooling Degree Days 12    
Growing Degree Days 27 (Base 50)    
Moisture  
Dew Point 43 °F    
Average Humidity 28    
Maximum Humidity 56    
Minimum Humidity 10    
Precipitation  
Precipitation 0.00 in - - ()
Sea Level Pressure  
Sea Level Pressure 29.93 in    
Wind  
Wind Speed 11 mph ()    
Max Wind Speed 18 mph    
Max Gust Speed -    
Visibility 6.0 miles    
Events      
Averages and records for this station are not official NWS values.
T = Trace of Precipitation, MM = Missing Value Source: Averaged Metar Reports

Daily Weather History Graph

Daily Weather History Graph

Search for Another Location

Airport or City:

Astronomy

Apr. 08, 2014 Rise Set
Actual Time 5:28 AM EET 6:05 PM EET
Civil Twilight 5:04 AM EET 6:29 PM EET
Nautical Twilight 4:37 AM EET 6:57 PM EET
Astronomical Twilight 4:09 AM EET 7:25 PM EET
Moon 12:12 PM EET (4/8) 12:55 AM EET (4/8)
Length of Visible Light 13h 24m
Length of Day
12h 37m
First Quarter, 60% of the Moon is Illuminated
Apr 8
First Quarter
Apr 15
Full
Apr 22
Last Quarter
Apr 29
New
May 7
First Quarter

Hourly Weather History & Observations

Time (EET) Temp. Dew Point Humidity Pressure Visibility Wind Dir Wind Speed Gust Speed Precip Events Conditions
12:00 AM 73.4 °F 41.0 °F 31% 29.92 in - NW 13.8 mph - N/A   Clear
1:00 AM 71.6 °F 42.8 °F 35% 29.92 in - NW 9.2 mph - N/A   Clear
2:00 AM 70 °F 47 °F 33% 29.92 in 6 mi NW 9.2 mph - -  
2:00 AM 69.8 °F 48.2 °F 46% 29.92 in - NW 9.2 mph - N/A   Clear
3:00 AM 69.8 °F 48.2 °F 46% 29.92 in - WNW 9.2 mph - N/A   Clear
4:00 AM 68.0 °F 51.8 °F 56% 29.92 in - NW 10.4 mph - N/A   Clear
5:00 AM 68 °F 49 °F 39% 29.94 in 6 mi NW 11.5 mph - -  
5:00 AM 68.0 °F 48.2 °F 49% 29.92 in - NW 11.5 mph - N/A   Clear
6:00 AM 69.8 °F 50.0 °F 49% 29.95 in - NW 11.5 mph - N/A   Clear
7:00 AM 73.4 °F 48.2 °F 41% 29.98 in - NW 11.5 mph - N/A   Clear
8:00 AM 76 °F 51 °F 31% 29.99 in 6 mi NW 13.8 mph - -  
8:00 AM 75.2 °F 51.8 °F 44% 29.98 in - NW 13.8 mph - N/A   Clear
9:00 AM 80.6 °F 46.4 °F 30% 29.98 in - NW 16.1 mph - N/A   Clear
10:00 AM 82.4 °F 46.4 °F 28% 29.98 in - North 12.7 mph - N/A   Clear
11:00 AM 85 °F 51 °F 21% 29.98 in 6 mi North 18.4 mph - -  
11:00 AM 86.0 °F 51.8 °F 31% 29.98 in - North 18.4 mph - N/A   Clear
12:00 PM 87.8 °F 46.4 °F 24% 29.95 in - North 17.3 mph - N/A   Clear
1:00 PM 89.6 °F 44.6 °F 21% 29.92 in - NNE 15.0 mph - N/A   Clear
2:00 PM 90 °F 47 °F 14% 29.92 in 6 mi NNE 13.8 mph - -  
2:00 PM 89.6 °F 46.4 °F 22% 29.98 in - NNE 13.8 mph - N/A   Clear
3:00 PM 89.6 °F 42.8 °F 20% 29.89 in - NNE 16.1 mph - N/A   Clear
4:00 PM 89.6 °F 39.2 °F 17% 29.89 in - North 15.0 mph - N/A   Clear
5:00 PM 87 °F 38 °F 10% 29.89 in 6 mi North 17.3 mph - -  
5:00 PM 87.8 °F 39.2 °F 18% 29.89 in - North 17.3 mph - N/A   Clear
6:00 PM 84.2 °F 37.4 °F 19% 29.89 in - North 9.2 mph - N/A   Clear
7:00 PM 82.4 °F 37.4 °F 20% 29.89 in - North 6.9 mph - N/A   Clear
8:00 PM 80 °F 33 °F 10% 29.92 in 6 mi North 9.2 mph - -  
8:00 PM 80.6 °F 32.0 °F 17% 29.92 in - North 9.2 mph - N/A   Clear
9:00 PM 80.6 °F 28.4 °F 15% 29.92 in - WNW 9.2 mph - N/A   Clear
10:00 PM 77.0 °F 28.4 °F 17% 29.92 in - WNW 15.0 mph - N/A   Clear
11:00 PM 75 °F 29 °F 10% 29.94 in 6 mi West 13.8 mph - -  
11:00 PM 75.2 °F 28.4 °F 18% 29.92 in - West 13.8 mph - N/A   Clear